sat.trackr.live / text

‹ back to catalog

STARLINK-11507 [DTC]

NORAD 62519 · 2025-004J

PAYLOAD ACTIVE UNKNOWN

§ Identity

Operator
Country
US
Launch date
2025-01-08
Launch site
AFETR
Launch vehicle
Mass (kg)
RCS (m²)

Purposes: comms

External: N2YO · Heavens-Above · Gunter

§ Orbital elements

Epoch: 2026-09-21T12:05:01.408128Z

Period
91.67 min
Inclination
43.0006°
Eccentricity
0.0001057
Mean motion
15.70844603 rev/d
Perigee alt
355.8 km
Apogee alt
357.2 km
Semi-major
6,734.6 km
B*
8.9710e-4
RAAN
330.5444°
Arg perigee
287.4279°
Mean anomaly
72.6473°
Rev number
9,800

§ Raw data

STARLINK-11507 [DTC]1 62519U 25004J   26264.50348852  .00116306  00000+0  89710-3 0  99932 62519  43.0006 330.5444 0001057 287.4279  72.6473 15.70844603 98007

JSON: /api/v1/satellites/62519 · /tle

For live sub-satellite position, see the globe view (requires WebGL).

§ Visibility from observer

Set your observer location to see the next 7 days of passes ≥ 10°. The values pass through the URL so the page stays shareable.

No JS? Fill the form by hand. The geolocation button needs JavaScript.